Location: Unspecified
(0.0000°N, 0.0000°E)
Time: 01:13:50
(UTC+00:00)

Altair - Pass Details

Date: 26 July 2024
Orbit: 1502 x 1682 km, 47.2° (Epoch: 07 July)

Event Time Altitude Azimuth Distance (km) Brightness Sun altitude
Rises 23:22:15 0° 345° (NNW) 4,623 10.3 -68.0°
Enters shadow 23:23:33 - 349° (NNW) 4,276 10.1 -68.1°
Maximum altitude 23:33:01 24° 48° (NE) 2,772 - -69.2°
Drops below altitude 10° 23:40:03 10° 98° (E) 3,737 - -69.8°
Sets 23:44:00 0° 111° (ESE) 4,753 - -70.1°
